Regional Weather Roundup
Issued by NWS Newport/Morehead, NC

Current Version | Previous Version | Text Only | Print | Product List | Glossary On
Versions: 1 2 3 4 5 6 7 8 9 10 11 12 13 14 15 16 17 18 19 20 21 22 23 24 25 26 27 28 29 30 31 32 33 34 35 36 37 38 39 40 41 42 43 44 45 46 47 48 49 50
306
ASUS42 KMHX 301325
RWRMHX
WEATHER ROUNDUP FOR EASTERN NORTH CAROLINA
NATIONAL WEATHER SERVICE NEWPORT/MOREHEAD CITY NC
900 AM EDT SUN APR 30 2017

NOTE: "FAIR" INDICATES FEW OR NO CLOUDS BELOW 12,000 FEET
WITH NO SIGNIFICANT WEATHER AND/OR OBSTRUCTIONS TO VISIBILITY

NCZ015>017-031-032-045>047-102-103-301400-
NORTH COAST

CITY           SKY/WX    TMP DP  RH WIND       PRES   REMARKS
EDENTON        CLOUDY    76  68  77 SW7       30.23R
ELIZABETH CITY LGT RAIN  75  69  81 SW15      30.21R
KITTY HAWK     SUNNY     76  67  73 SW7       30.20S
MANTEO         MOSUNNY   76  68  78 W14       30.22F

$$

NCZ045>047-081-094-103-104-301400-
CENTRAL COAST

CITY           SKY/WX    TMP DP  RH WIND       PRES   REMARKS
FRISCO         PTSUNNY   76  70  82 SW6       30.24R HAZE

$$

NCZ095-097-098-100-101-301400-
SOUTHERN COAST

CITY           SKY/WX    TMP DP  RH WIND       PRES   REMARKS
BEAUFORT       MOSUNNY   76  73  91 SW13      30.23R
CEDAR ISLAND   NOT AVBL
JACKSONVILLE   PTSUNNY   77  72  84 SW9       30.23R
PINEY ISLAND   PTSUNNY  N/A N/A N/A SW12      30.22S
WILMINGTON     MOSUNNY   76  72  87 S10       30.22R


$$

NCZ011>013-027>030-043-044-078>080-089-090>093-098-301400-
COASTAL PLAIN

CITY           SKY/WX    TMP DP  RH WIND       PRES   REMARKS
AHOSKIE          N/A     74  68  79 S5        30.20F
CLINTON        CLOUDY    76  71  84 S5        30.23S
ELIZABETHTOWN  CLOUDY    76  72  88 S8        30.22S
GOLDSBORO      MOSUNNY   76  73  90 S10       30.21S
GREENVILLE     PTSUNNY   77  70  78 W9        30.23S
HAVELOCK       SUNNY     76  71  85 SW12      30.24R
KENANSVILLE    CLOUDY    77  70  78 SW5       30.24R
KINSTON        MOSUNNY   75  68  78 S6        30.23R
NEW BERN       PTSUNNY   76  72  87 SW13G18   30.24S
RICHLANDS      CLOUDY    74  71  91 S8        30.24R
ROCKY MOUNT    PTSUNNY   75  69  81 SW10      30.21S
WASHINGTON     PTSUNNY   75  68  79 SW12      30.23S
WHITEVILLE     CLOUDY    76  71  87 SE7       30.22S

$$

AMZ130-135-150-152-154-156-158-170-250-252-270-ANZ085-086-088-633-658-670-301400-
MARINE OBSERVATIONS

STATION/POSITION TIME  TEMP    WIND        PRES    WAVE   SWELL
                       AIR SEA DIR/SP/G            HT/PER HT/PER
                 (UTC) (F)     (DEG/KT/KT) (MB)    (FT/S) (FT/S)
CHESAPEAKE LIGHT NOT AVBL
64 E VA BEACH    1250   63 57  220/ 12/ 14 1022.9    3/ 5   2/ 6
DUCK             1300   74 56  230/ 14/ 19 1022.4
2 E DUCK         1300      59                N/A     2/ 7
OREGON INLET     1300   74 77  210/ 14/ 18 1023.0
13E OREGON INLT  1248      62                N/A     3/ 6   2/ 7
HATTERAS CG      1300   75 72  220/  7/  9 1023.6
DIAMOND BUOY     1250   76 74  220/ 14/ 16 1023.8    3/ 4   2/ 7
CAPE LOOKOUT     1300   76     200/  9/ 12 1023.3
BEAUFORT LAB     1300   75 72  210/  9/ 12 1022.9
30 SE NEW RVR IN 1308   74     200/  8/ 12 1023.7
30 SE NEW RVR IN 1243      73                N/A     3/ 7
27 SE WRIGHTSVLE 1308   75 73  190/ 12/ 16 1023.1
5 SE WRIGHTSVLE  1308   73 71  190/  8/ 12 1023.5
225 S CAPE HAT   1250   74 76  150/ 10/ 12 1025.6    3/ 6   3/ 6
41 SE CHARLESTON 1300   76 75  170/ 14/ 17 1022.5

$$




USA.gov is the U.S. government's official web portal to all federal, state and local government web resources and services.